Weather History for Ravenna, OH

Change the Weather History Date:

Monday, April 8, 2013

  Actual Average (KCAK) Record (KCAK)
Temperature  
Mean Temperature 52 °F 46 °F  
Max Temperature 70 °F 57 °F 80 °F (2001)
Min Temperature 35 °F 36 °F 14 °F (1972)
Degree Days  
Heating Degree Days 12 19  
Month to date heating degree days 160  
Since 1 July heating degree days 5555  
Cooling Degree Days 0 0  
Month to date cooling degree days 0  
Year to date cooling degree days 0  
Growing Degree Days 2 (Base 50)    
Moisture  
Dew Point 41 °F    
Average Humidity 62    
Maximum Humidity 91    
Minimum Humidity 38    
Precipitation  
Precipitation 0.00 in 0.12 in 0.85 in (1980)
Month to date precipitation 0.95  
Year to date precipitation 8.85  
Snow  
Snow 0.00 in 0.10 in - ()
Month to date snowfall 1.2  
Since 1 July snowfall 45.9  
Snow Depth -    
Sea Level Pressure  
Sea Level Pressure 29.95 in    
Wind  
Wind Speed 8 mph (SSE)    
Max Wind Speed 14 mph    
Max Gust Speed 26 mph    
Visibility 10 miles    
Events      
T = Trace of Precipitation, MM = Missing Value Source: NWS Daily Summary

Daily Weather History Graph

Daily Weather History Graph

Search for Another Location

Airport:

Trip Planner

Search our weather history database for the weather conditions in past years. The results will help you decide how hot, cold, wet, or windy it might be!

Date:

Astronomy

Apr. 08, 2013 Rise Set
Actual Time 6:56 AM EDT 7:57 PM EDT
Civil Twilight 6:28 AM EDT 8:26 PM EDT
Nautical Twilight 5:54 AM EDT 8:59 PM EDT
Astronomical Twilight 5:19 AM EDT 9:34 PM EDT
Moon 5:46 AM EDT (4/8) 6:30 PM EDT (4/8)
Length of Visible Light 13h 57m
Length of Day
13h 01m
Waning Crescent, 3% of the Moon is Illuminated
Apr 8
Waning Crescent
Apr 10
New
Apr 18
First Quarter
Apr 25
Full
May 2
Last Quarter

Hourly Weather History & Observations

Time (EDT) Temp. Windchill Dew Point Humidity Pressure Visibility Wind Dir Wind Speed Gust Speed Precip Events Conditions
12:17 AM 42.8 °F 39.3 °F 34.9 °F 74% 30.02 in 10.0 mi ENE 5.8 mph - N/A   Clear
12:37 AM 42.6 °F 37.8 °F 34.7 °F 74% 30.02 in 10.0 mi ENE 8.1 mph - N/A   Clear
12:57 AM 41.9 °F 36.9 °F 34.7 °F 76% 30.03 in 10.0 mi ENE 8.1 mph - N/A   Clear
1:17 AM 41.0 °F 37.1 °F 34.0 °F 76% 30.03 in 10.0 mi East 5.8 mph - N/A   Clear
1:36 AM 39.4 °F 35.2 °F 33.6 °F 80% 30.04 in 10.0 mi East 5.8 mph - N/A   Clear
1:57 AM 38.3 °F 33.2 °F 32.9 °F 81% 30.05 in 10.0 mi NE 6.9 mph - N/A   Clear
2:17 AM 37.8 °F 33.3 °F 32.9 °F 83% 30.04 in 10.0 mi ENE 5.8 mph - N/A   Clear
2:37 AM 37.4 °F 32.1 °F 32.4 °F 82% 30.04 in 10.0 mi ENE 6.9 mph - N/A   Clear
2:57 AM 37.0 °F 32.4 °F 32.7 °F 84% 30.04 in 10.0 mi East 5.8 mph - N/A   Clear
3:17 AM 36.7 °F 32.9 °F 32.7 °F 86% 30.04 in 10.0 mi East 4.6 mph - N/A   Clear
3:37 AM 37.4 °F 33.8 °F 33.1 °F 84% 30.03 in 10.0 mi East 4.6 mph - N/A   Clear
3:56 AM 36.0 °F 31.1 °F 32.4 °F 87% 30.03 in 10.0 mi ENE 5.8 mph - N/A   Clear
4:17 AM 36.3 °F 31.6 °F 33.6 °F 90% 30.02 in 10.0 mi East 5.8 mph - N/A   Clear
4:37 AM 35.8 °F 30.9 °F 33.1 °F 90% 30.02 in 10.0 mi East 5.8 mph - N/A   Clear
4:56 AM 37.4 °F 31.4 °F 34.3 °F 89% 30.01 in 10.0 mi NE 8.1 mph - N/A   Clear
5:17 AM 37.4 °F 32.8 °F 33.4 °F 86% 30.01 in 10.0 mi East 5.8 mph - N/A   Clear
5:37 AM 37.4 °F 32.1 °F 33.1 °F 84% 30.01 in 10.0 mi East 6.9 mph - N/A   Clear
5:57 AM 36.5 °F 30.3 °F 34.2 °F 91% 30.01 in 10.0 mi ENE 8.1 mph - N/A   Clear
6:17 AM 36.5 °F 31.0 °F 33.8 °F 90% 30.01 in 10.0 mi East 6.9 mph - N/A   Clear
6:37 AM 37.2 °F 31.2 °F 34.3 °F 89% 30.00 in 10.0 mi East 8.1 mph - N/A   Clear
6:57 AM 38.3 °F 33.9 °F 34.5 °F 86% 30.03 in 10.0 mi ESE 5.8 mph - N/A   Clear
7:17 AM 38.3 °F 33.2 °F 34.3 °F 86% 30.03 in 10.0 mi East 6.9 mph - N/A   Clear
7:37 AM 38.8 °F 33.2 °F 34.7 °F 85% 30.03 in 10.0 mi East 8.1 mph - N/A   Scattered Clouds
7:56 AM 40.5 °F 35.1 °F 36.0 °F 84% 30.03 in 10.0 mi East 8.1 mph - N/A   Mostly Cloudy
8:17 AM 41.9 °F 37.5 °F 36.5 °F 81% 30.03 in 10.0 mi East 6.9 mph - N/A   Overcast
8:37 AM 42.8 °F 39.3 °F 36.7 °F 79% 30.03 in 10.0 mi ESE 5.8 mph - N/A   Mostly Cloudy
8:56 AM 45.7 °F 41.5 °F 37.8 °F 74% 30.02 in 10.0 mi ESE 8.1 mph - N/A   Scattered Clouds
9:17 AM 49.3 °F - 39.2 °F 68% 30.01 in 10.0 mi East 8.1 mph - N/A   Clear
9:37 AM 50.2 °F - 38.1 °F 63% 30.00 in 10.0 mi ESE 11.5 mph - N/A   Clear
9:57 AM 51.8 °F - 38.8 °F 61% 30.00 in 10.0 mi SE 9.2 mph - N/A   Clear
10:17 AM 52.7 °F - 39.6 °F 61% 29.99 in 10.0 mi SE 8.1 mph - N/A   Clear
10:37 AM 54.9 °F - 40.5 °F 58% 29.99 in 10.0 mi SE 6.9 mph - N/A   Mostly Cloudy
10:57 AM 55.0 °F - 41.0 °F 59% 29.99 in 10.0 mi SE 5.8 mph - N/A   Overcast
11:12 AM 56.5 °F - 42.3 °F 59% 29.99 in 10.0 mi SE 9.2 mph - N/A   Overcast
11:37 AM 56.7 °F - 42.8 °F 60% 29.98 in 10.0 mi SE 4.6 mph - N/A   Overcast
11:57 AM 58.3 °F - 44.2 °F 60% 29.97 in 10.0 mi SSE 6.9 mph - N/A   Overcast
12:17 PM 61.0 °F - 45.1 °F 56% 29.95 in 10.0 mi SSE 8.1 mph - N/A   Scattered Clouds
12:37 PM 63.9 °F - 45.5 °F 51% 29.94 in 10.0 mi SSE 8.1 mph - N/A   Clear
12:56 PM 65.1 °F - 45.3 °F 49% 29.93 in 10.0 mi South 6.9 mph - N/A   Clear
1:17 PM 67.6 °F - 45.7 °F 45% 29.92 in 10.0 mi South 8.1 mph - N/A   Scattered Clouds
1:37 PM 66.7 °F - 44.1 °F 44% 29.91 in 10.0 mi SSW 9.2 mph 17.3 mph N/A   Unknown
1:57 PM 66.4 °F - 44.2 °F 45% 29.90 in 10.0 mi SW 9.2 mph 16.1 mph N/A   Unknown
2:17 PM 67.5 °F - 44.4 °F 43% 29.90 in 10.0 mi SSW 8.1 mph 16.1 mph N/A   Unknown
2:37 PM 69.3 °F - 43.9 °F 40% 29.89 in 10.0 mi SSW 13.8 mph 23.0 mph N/A   Unknown
2:56 PM 70.3 °F - 43.5 °F 38% 29.87 in 10.0 mi South 12.7 mph 20.7 mph N/A   Unknown
3:17 PM 69.6 °F - 43.7 °F 39% 29.86 in 10.0 mi SSW 6.9 mph 17.3 mph N/A   Overcast
3:37 PM 68.9 °F - 42.8 °F 39% 29.87 in 10.0 mi SSW 10.4 mph 20.7 mph N/A   Overcast
3:56 PM 68.2 °F - 43.2 °F 40% 29.86 in 10.0 mi SW 12.7 mph 24.2 mph N/A   Overcast
4:17 PM 68.2 °F - 43.7 °F 41% 29.86 in 10.0 mi SW 5.8 mph 19.6 mph N/A   Overcast
4:37 PM 68.2 °F - 43.9 °F 41% 29.86 in 10.0 mi SSW 13.8 mph 19.6 mph N/A   Overcast
4:57 PM 68.4 °F - 44.1 °F 41% 29.86 in 10.0 mi SW 9.2 mph 23.0 mph N/A   Overcast
5:17 PM 68.0 °F - 44.8 °F 43% 29.86 in 10.0 mi SW 11.5 mph 24.2 mph N/A   Overcast
5:37 PM 69.3 °F - 45.0 °F 42% 29.86 in 10.0 mi SSW 11.5 mph 18.4 mph N/A   Mostly Cloudy
5:56 PM 70.0 °F - 44.8 °F 40% 29.85 in 10.0 mi South 12.7 mph 20.7 mph N/A   Mostly Cloudy
6:17 PM 68.9 °F - 45.1 °F 42% 29.86 in 10.0 mi SSW 13.8 mph 26.5 mph N/A   Mostly Cloudy
6:37 PM 69.1 °F - 45.5 °F 43% 29.85 in 10.0 mi SW 10.4 mph 25.3 mph N/A   Mostly Cloudy
6:56 PM 68.5 °F - 45.9 °F 44% 29.85 in 10.0 mi SW 12.7 mph 24.2 mph N/A   Scattered Clouds
7:17 PM 68.4 °F - 46.4 °F 45% 29.85 in 10.0 mi SSW 12.7 mph 21.9 mph N/A   Mostly Cloudy
7:37 PM 68.2 °F - 46.6 °F 46% 29.85 in 10.0 mi SW 9.2 mph 18.4 mph N/A   Overcast
7:57 PM 67.5 °F - 47.5 °F 49% 29.85 in 10.0 mi SW 10.4 mph 19.6 mph N/A   Light Drizzle
8:17 PM 67.5 °F - 47.3 °F 48% 29.86 in 10.0 mi SW 10.4 mph 18.4 mph N/A   Overcast
8:37 PM 67.8 °F - 47.3 °F 48% 29.87 in 10.0 mi SW 8.1 mph 17.3 mph N/A   Overcast
8:57 PM 67.6 °F - 47.5 °F 48% 29.88 in 10.0 mi SW 9.2 mph - N/A   Overcast
9:17 PM 67.6 °F - 47.8 °F 49% 29.89 in 10.0 mi WSW 11.5 mph - N/A   Overcast
9:37 PM 67.1 °F - 48.2 °F 51% 29.89 in 10.0 mi SW 10.4 mph 17.3 mph N/A   Overcast
9:56 PM 67.1 °F - 48.4 °F 51% 29.90 in 10.0 mi SW 9.2 mph 19.6 mph N/A   Mostly Cloudy
10:17 PM 66.7 °F - 48.6 °F 52% 29.91 in 10.0 mi SW 11.5 mph 23.0 mph N/A   Mostly Cloudy
10:37 PM 66.6 °F - 48.7 °F 53% 29.92 in 10.0 mi WSW 8.1 mph 17.3 mph N/A   Overcast
10:56 PM 66.2 °F - 48.7 °F 53% 29.91 in 10.0 mi SW 10.4 mph 17.3 mph N/A   Mostly Cloudy
11:17 PM 66.2 °F - 49.1 °F 54% 29.92 in 10.0 mi SW 12.7 mph 19.6 mph N/A   Mostly Cloudy
11:37 PM 65.5 °F - 49.3 °F 56% 29.92 in 10.0 mi SW 13.8 mph 23.0 mph N/A   Mostly Cloudy
11:57 PM 65.7 °F - 49.6 °F 56% 29.93 in 10.0 mi SW 12.7 mph 25.3 mph N/A   Mostly Cloudy